Location: Newark
(39.6867°N, 100.6772°W)
Time: 18:31:06
(UTC+00:00)

Tiros 1 despin weight - All Passes

Search period start: 22 October 2019 00:00
Search period end: 01 November 2019 00:00
Orbit: 593 x 643 km, 48.2° (Epoch: 22 October)

Date Brightness Start Highest point End Pass type
(mag) Time Alt. Az. Time Alt. Az. Time Alt. Az.
22 Oct - 05:37:02 10° SSW 05:41:07 32° SE 05:45:16 10° ENE night (unlit)
22 Oct - 07:17:56 10° WSW 07:22:32 59° NNW 07:27:11 10° NE night (unlit)
22 Oct - 09:00:39 10° WNW 09:04:46 29° N 09:08:54 10° NE visible
22 Oct - 10:42:55 10° NW 10:47:15 35° NNE 10:51:33 10° E visible
22 Oct - 12:24:28 10° WNW 12:29:11 82° SW 12:33:51 10° SE visible
22 Oct - 14:07:23 10° W 14:10:12 16° SW 14:13:02 10° S daylight
23 Oct - 04:15:52 10° SE 04:16:43 10° SE 04:17:34 10° ESE night (unlit)
23 Oct - 05:52:59 10° SW 05:57:32 60° SE 06:02:09 10° ENE night (unlit)
23 Oct - 07:34:54 10° W 07:39:18 40° NNW 07:43:45 10° NE night (unlit)
23 Oct - 09:17:39 10° WNW 09:21:44 28° N 09:25:49 10° ENE visible
23 Oct - 10:59:31 10° NW 11:04:05 48° NNE 11:08:37 10° E visible
23 Oct - 12:41:13 10° WNW 12:45:41 45° SW 12:50:07 10° SSE daylight
24 Oct - 04:29:24 10° S 04:32:55 22° SE 04:36:28 10° E night (unlit)
24 Oct - 06:09:28 10° WSW 06:14:06 78° NNW 06:18:48 10° ENE night (unlit)
24 Oct - 07:51:59 10° WNW 07:56:11 32° N 08:00:24 10° NE night (unlit)
24 Oct - 09:34:28 10° NW 09:38:40 31° N 09:42:53 10° ENE visible
24 Oct - 11:16:05 10° WNW 11:20:48 74° NNE 11:25:28 10° ESE visible
24 Oct - 12:58:18 10° W 13:02:02 24° SW 13:05:44 10° S daylight
25 Oct - 04:44:55 10° SSW 04:49:15 41° SE 04:53:37 10° ENE night (unlit)
25 Oct - 06:26:17 10° W 06:30:48 49° NNW 06:35:22 10° NE night (unlit)
25 Oct - 08:09:03 10° WNW 08:13:08 29° N 08:17:13 10° ENE night (unlit)
25 Oct - 09:51:08 10° NW 09:55:33 39° NNE 09:59:59 10° E visible
25 Oct - 11:32:42 10° WNW 11:37:22 65° SW 11:41:59 10° SE visible
25 Oct - 13:16:36 10° WSW 13:18:15 12° SW 13:19:53 10° SSW daylight
26 Oct - 03:22:15 10° SSE 03:24:45 14° SE 03:27:15 10° E night (unlit)
26 Oct - 05:01:07 10° SW 05:05:43 77° SE 05:10:23 10° ENE night (unlit)
26 Oct - 06:43:19 10° W 06:47:37 36° NNW 06:51:57 10° NE night (unlit)
26 Oct - 08:25:59 10° NW 08:30:05 29° N 08:34:12 10° ENE night (unlit)
26 Oct - 10:07:42 10° NW 10:12:20 57° NNE 10:16:58 10° ESE visible
26 Oct - 11:49:33 10° WNW 11:53:48 34° SW 11:58:00 10° SSE visible
27 Oct - 03:37:05 10° SSW 03:40:59 28° SE 03:44:58 10° ENE night (unlit)
27 Oct - 05:17:45 10° WSW 05:22:19 64° NNW 05:26:59 10° NE night (unlit)
27 Oct - 07:00:25 10° WNW 07:04:32 30° N 07:08:40 10° NE night (unlit)
27 Oct - 08:42:43 10° NW 08:47:00 34° NNE 08:51:17 10° E night (unlit)
27 Oct - 10:24:17 10° WNW 10:29:00 89° SW 10:33:42 10° ESE visible
27 Oct - 12:06:56 10° W 12:10:05 18° SW 12:13:14 10° S visible
28 Oct - 03:52:55 10° SW 03:57:22 54° SE 04:01:55 10° ENE night (unlit)
28 Oct - 05:34:41 10° W 05:39:05 42° NNW 05:43:32 10° NE night (unlit)
28 Oct - 07:17:26 10° WNW 07:21:28 28° N 07:25:33 10° ENE night (unlit)
28 Oct - 08:59:20 10° NW 09:03:51 45° NNE 09:08:22 10° E visible
28 Oct - 10:40:58 10° WNW 10:45:31 50° SW 10:50:02 10° SE visible
29 Oct - 02:29:33 10° S 02:32:48 19° SE 02:36:04 10° E night (unlit)
29 Oct - 04:09:20 10° WSW 04:13:55 84° NNW 04:18:35 10° ENE night (unlit)
29 Oct - 05:51:46 10° WNW 05:55:56 32° NNW 06:00:10 10° NE night (unlit)
29 Oct - 07:34:16 10° NW 07:38:26 30° N 07:42:36 10° ENE night (unlit)
29 Oct - 09:15:53 10° NW 09:20:35 69° NNE 09:25:16 10° ESE visible
29 Oct - 10:57:58 10° W 11:01:53 26° SW 11:05:46 10° SSE visible
30 Oct - 02:44:55 10° SSW 02:49:06 37° SE 02:53:21 10° ENE visible
30 Oct - 04:26:06 10° W 04:30:35 52° NNW 04:35:09 10° NE night (unlit)
30 Oct - 06:08:50 10° WNW 06:12:52 29° N 06:16:57 10° ENE night (unlit)
30 Oct - 07:50:57 10° NW 07:55:19 37° NNE 07:59:42 10° E night (unlit)
30 Oct - 09:32:30 10° WNW 09:37:10 71° SW 09:41:50 10° SE visible
30 Oct - 11:15:53 10° WSW 11:18:07 13° SW 11:20:21 10° SSW visible
31 Oct - 01:22:41 10° SSE 01:24:39 13° SE 01:26:36 10° ESE visible
31 Oct - 03:01:01 10° SW 03:05:32 71° SE 03:10:09 10° ENE visible
31 Oct - 04:43:06 10° W 04:47:23 37° NNW 04:51:44 10° NE night (unlit)
31 Oct - 06:25:47 10° WNW 06:29:50 29° N 06:33:55 10° ENE night (unlit)
31 Oct - 08:07:31 10° NW 08:12:07 53° NNE 08:16:43 10° ESE night (unlit)
31 Oct - 09:49:17 10° WNW 09:53:37 38° SW 09:57:58 10° SSE night (unlit)
